Gainesville, GA

1:29 AM EDT on July 21, 2017 (GMT -0400)
Gilmer Memorial

Weather History for KGVL - December, 2011

Change the Weather History Date:

Wednesday, December 7, 2011

  Actual Average Record
Temperature  
Mean Temperature 48 °F 46 °F  
Max Temperature 62 °F 54 °F 73 °F (1951)
Min Temperature 35 °F 37 °F 6 °F (1937)
Degree Days  
Heating Degree Days 16 20  
Month to date heating degree days 131  
Since 1 July heating degree days 666  
Moisture  
Dew Point 47 °F    
Average Humidity 91    
Maximum Humidity 100    
Minimum Humidity 70    
Precipitation  
Precipitation 0.32 in 0.17 in 2.01 in (1950)
Month to date precipitation 1.21  
Year to date precipitation 50.69  
Snow  
Snow 0.00 in - - ()
Month to date snowfall  
Since 1 July snowfall  
Snow Depth -    
Sea Level Pressure  
Sea Level Pressure 29.90 in    
Wind  
Wind Speed 9 mph (West)    
Max Wind Speed 23 mph    
Max Gust Speed 37 mph    
Visibility 8 miles    
Events Rain    
T = Trace of Precipitation, MM = Missing Value Source: NWS Daily Summary

Daily Weather History Graph

Daily Weather History Graph

Search for Another Location

Airport or City:

Trip Planner

Search our weather history database for the weather conditions in past years. The results will help you decide how hot, cold, wet, or windy it might be!

Date:

Astronomy

Dec. 07, 2011 Rise Set
Actual Time 7:28 AM EST 5:25 PM EST
Civil Twilight 7:00 AM EST 5:52 PM EST
Nautical Twilight 6:29 AM EST 6:24 PM EST
Astronomical Twilight 5:58 AM EST 6:54 PM EST
Moon 3:23 PM EST (12/7) 4:45 AM EST (12/7)
Length of Visible Light 10h 52m
Length of Day
9h 57m
Waxing Gibbous, 92% of the Moon is Illuminated
Dec 7
Waxing Gibbous
Dec 10
Full
Dec 17
Last Quarter
Dec 24
New
Jan 1
First Quarter

Hourly Weather History & Observations

Time (EST) Temp. Windchill Dew Point Humidity Pressure Visibility Wind Dir Wind Speed Gust Speed Precip Events Conditions
12:02 AM 62.6 °F - 62.6 °F 100% 29.94 in 2.5 mi SW 5.8 mph - 0.02 in Rain Light Rain
12:20 AM 60.8 °F - 60.8 °F 100% 29.95 in 6.0 mi West 9.2 mph - 0.05 in Rain Light Rain
12:40 AM 60.8 °F - 59.0 °F 94% 29.94 in 4.0 mi West 5.8 mph - 0.06 in Rain Light Rain
12:53 AM 60.1 °F - 59.0 °F 96% 29.90 in 8.0 mi West 4.6 mph - 0.06 in   Overcast
12:57 AM 60.8 °F - 59.0 °F 94% 29.93 in 7.0 mi West 5.8 mph - 0.00 in Rain Light Rain
1:10 AM 59.0 °F - 59.0 °F 100% 29.92 in 10.0 mi WSW 4.6 mph - 0.01 in Rain Light Rain
1:20 AM 59.0 °F - 59.0 °F 100% 29.92 in 5.0 mi WSW 6.9 mph - 0.02 in Rain Light Rain
1:53 AM 57.9 °F - 57.0 °F 97% 29.89 in 5.0 mi WSW 8.1 mph - 0.03 in Rain Light Rain
2:53 AM 55.9 °F - 55.0 °F 97% 29.89 in 10.0 mi West 5.8 mph - 0.01 in   Overcast
3:08 AM 55.4 °F - 55.4 °F 100% 29.92 in 10.0 mi West 8.1 mph - N/A   Overcast
3:28 AM 55.4 °F - 53.6 °F 94% 29.90 in 9.0 mi West 8.1 mph - 0.00 in Rain Light Rain
3:53 AM 55.0 °F - 54.0 °F 96% 29.88 in 10.0 mi West 8.1 mph - 0.00 in   Overcast
4:12 AM 55.4 °F - 53.6 °F 94% 29.89 in 10.0 mi West 5.8 mph - N/A   Overcast
4:41 AM 53.6 °F - 53.6 °F 100% 29.88 in 10.0 mi West 9.2 mph - N/A   Overcast
4:53 AM 54.0 °F - 53.1 °F 97% 29.85 in 10.0 mi West 5.8 mph - N/A   Overcast
5:04 AM 53.6 °F - 53.6 °F 100% 29.87 in 10.0 mi WSW 6.9 mph - N/A   Overcast
5:53 AM 53.1 °F - 52.0 °F 96% 29.84 in 10.0 mi WNW 5.8 mph - N/A   Overcast
6:38 AM 53.6 °F - 51.8 °F 94% 29.86 in 5.0 mi West 6.9 mph - 0.00 in Rain Light Rain
6:51 AM 51.8 °F - 51.8 °F 100% 29.86 in 10.0 mi West 5.8 mph - 0.00 in   Overcast
6:53 AM 52.0 °F - 52.0 °F 100% 29.84 in 10.0 mi West 8.1 mph - 0.00 in   Overcast
7:00 AM 51.8 °F - 51.8 °F 100% 29.86 in 7.0 mi West 5.8 mph - 0.00 in Rain Light Rain
7:32 AM 51.8 °F - 51.8 °F 100% 29.86 in 5.0 mi West 6.9 mph - 0.01 in Rain Light Rain
7:53 AM 52.0 °F - 51.1 °F 97% 29.83 in 10.0 mi WNW 6.9 mph - 0.01 in Rain Light Rain
8:05 AM 51.8 °F - 50.0 °F 94% 29.84 in 9.0 mi WNW 6.9 mph - 0.00 in Rain Light Rain
8:19 AM 51.8 °F - 50.0 °F 94% 29.84 in 10.0 mi West 8.1 mph - 0.00 in Rain Light Rain
8:27 AM 51.8 °F - 50.0 °F 94% 29.85 in 10.0 mi West 6.9 mph - 0.01 in Rain Light Rain
8:51 AM 51.1 °F - 50.0 °F 96% 29.84 in 10.0 mi WSW 6.9 mph - 0.01 in   Overcast
9:06 AM 51.8 °F - 50.0 °F 94% 29.84 in 8.0 mi WSW 5.8 mph - 0.01 in Rain Light Rain
9:53 AM 51.1 °F - 50.0 °F 96% 29.84 in 4.0 mi SW 6.9 mph - 0.03 in Rain Light Rain
10:34 AM 51.8 °F - 50.0 °F 94% 29.84 in 5.0 mi WSW 6.9 mph - 0.04 in Rain Light Rain
10:41 AM 51.8 °F - 50.0 °F 94% 29.84 in 6.0 mi WSW 5.8 mph - 0.04 in Rain Light Rain
10:53 AM 50.0 °F - 50.0 °F 100% 29.82 in 5.0 mi SW 8.1 mph - 0.05 in Rain Light Rain
11:17 AM 50.0 °F - 48.2 °F 94% 29.82 in 10.0 mi WSW 11.5 mph - 0.00 in Rain Light Rain
11:37 AM 50.0 °F - 48.2 °F 94% 29.80 in 6.0 mi West 10.4 mph - 0.02 in Rain Light Rain
11:44 AM 50.0 °F - 48.2 °F 94% 29.80 in 10.0 mi West 13.8 mph - 0.02 in Rain Light Rain
11:48 AM 50.0 °F - 48.2 °F 94% 29.80 in 9.0 mi WSW 11.5 mph - 0.02 in Rain Light Rain
11:53 AM 50.0 °F - 48.9 °F 96% 29.78 in 6.0 mi West 11.5 mph - 0.03 in Rain Rain
12:53 PM 48.0 °F - 46.0 °F 93% 29.79 in 8.0 mi West 16.1 mph 25.3 mph 0.09 in Rain Light Rain
1:24 PM 46.4 °F 38.3 °F 42.8 °F 87% 29.81 in 10.0 mi WSW 23.0 mph 36.8 mph 0.00 in   Overcast
1:31 PM 46.4 °F 39.0 °F 42.8 °F 87% 29.80 in 7.0 mi West 19.6 mph 33.4 mph 0.00 in   Overcast
1:53 PM 44.1 °F 36.8 °F 41.0 °F 89% 29.79 in 10.0 mi West 16.1 mph 33.4 mph 0.00 in   Overcast
2:01 PM 44.6 °F 38.1 °F 42.8 °F 93% 29.80 in 10.0 mi West 13.8 mph 24.2 mph N/A   Overcast
2:22 PM 44.6 °F 36.6 °F 39.2 °F 81% 29.81 in 10.0 mi West 19.6 mph 29.9 mph N/A   Overcast
3:53 PM 42.1 °F 32.6 °F 37.0 °F 82% 29.86 in 10.0 mi West 23.0 mph 35.7 mph 0.00 in   Mostly Cloudy
4:53 PM 41.0 °F 31.6 °F 35.1 °F 79% 29.90 in 10.0 mi West 20.7 mph 27.6 mph 0.00 in   Overcast
5:33 PM 39.2 °F 30.2 °F 33.8 °F 81% 29.92 in 10.0 mi West 17.3 mph 26.5 mph N/A   Scattered Clouds
5:53 PM 37.9 °F 27.6 °F 33.1 °F 83% 29.95 in 10.0 mi WNW 20.7 mph 27.6 mph N/A   Partly Cloudy
6:32 PM 37.4 °F 28.5 °F 33.8 °F 87% 29.97 in 10.0 mi WNW 15.0 mph 26.5 mph N/A   Mostly Cloudy
6:53 PM 37.9 °F 29.2 °F 33.1 °F 83% 30.00 in 10.0 mi WNW 15.0 mph 26.5 mph N/A   Mostly Cloudy
7:10 PM 37.4 °F 27.8 °F 32.0 °F 81% 30.01 in 10.0 mi WNW 17.3 mph 26.5 mph N/A   Scattered Clouds
7:53 PM 37.9 °F 27.9 °F 30.0 °F 73% 30.04 in 10.0 mi NW 19.6 mph 28.8 mph N/A   Clear
8:53 PM 37.0 °F 28.9 °F 30.9 °F 79% 30.07 in 10.0 mi WNW 12.7 mph - N/A   Clear
9:45 PM 37.4 °F 29.3 °F 30.2 °F 75% 30.09 in 10.0 mi NNW 12.7 mph - N/A   Mostly Cloudy
9:53 PM 37.0 °F 27.7 °F 28.0 °F 70% 30.09 in 10.0 mi NW 16.1 mph 27.6 mph N/A   Mostly Cloudy
10:17 PM 35.6 °F 25.9 °F 28.4 °F 75% 30.10 in 10.0 mi NW 16.1 mph 25.3 mph N/A   Partly Cloudy
10:53 PM 36.0 °F 28.0 °F 28.0 °F 73% 30.11 in 10.0 mi NW 11.5 mph 20.7 mph N/A   Partly Cloudy
11:53 PM 36.0 °F 26.7 °F 27.0 °F 70% 30.15 in 10.0 mi WNW 15.0 mph - N/A   Scattered Clouds